DW4782 Asprovalta GR current weather conditions

sailwx.info

Wind from 001 at 9 knots gusting 20

Air temperature 12.8° C
Dewpoint 11.3° C

Last reported at 2014-Oct-24 17:50 UTC.
Time now 2014-Oct-24 18:49 UTC

Location: N 40°43' E 023°43'.
View on Google Maps.

See reports from other nearby stations

  
Tides and Currents Weather Stations Pressure Air Temp Water Temp Dewpoint Dewpoint Depression Visibility Wind Speed Wind Dir Waves Ship Positions
date/time (UTC)wind fromknots sea level pressurealtimeterstation pressurevisibilityair tempwater tempwave heightnotes
2014-Oct-24 17:50 001 9 gusting 20 12.8
2014-Oct-24 17:40 354 8 gusting 16 12.8
2014-Oct-24 17:30 004 8 gusting 15 12.8
2014-Oct-24 17:10 022 7 gusting 18 12.8
2014-Oct-24 17:00 013 7 gusting 13 12.8
2014-Oct-24 16:50 025 6 gusting 9 12.8
2014-Oct-24 16:20 023 6 gusting 12 12.8
2014-Oct-24 16:10 018 6 gusting 11 13.3
2014-Oct-24 15:40 034 6 gusting 9 13.3
2014-Oct-24 15:20 018 6 gusting 12 13.3
2014-Oct-24 15:00 020 5 gusting 9 13.3
2014-Oct-24 14:50 031 6 gusting 14 13.3
2014-Oct-24 14:20 016 4 gusting 11 13.3
2014-Oct-24 14:00 020 4 gusting 6 13.9
2014-Oct-24 13:40 014 4 gusting 6 13.9
2014-Oct-24 12:40 020 4 gusting 7 13.9
2014-Oct-24 12:30 012 4 gusting 9 13.9
2014-Oct-24 12:20 006 5 gusting 10 13.3
2014-Oct-24 12:00 002 5 gusting 8 13.3
2014-Oct-24 11:50 008 2 gusting 10 13.3
2014-Oct-24 11:40 005 2 gusting 3 13.3
2014-Oct-24 11:30 344 4 gusting 11 13.9
2014-Oct-24 11:20 358 4 gusting 7 13.9
2014-Oct-24 11:10 012 4 gusting 8 14.4
2014-Oct-24 11:00 004 3 gusting 8 14.4
2014-Oct-24 10:50 011 2 gusting 7 15.0
2014-Oct-24 10:30 014 3 gusting 6 15.6
2014-Oct-24 10:20 017 3 gusting 8 16.1
2014-Oct-24 10:10 028 4 gusting 7 16.7
2014-Oct-24 10:00 025 4 gusting 9 16.7
2014-Oct-24 09:50 026 3 gusting 10 16.7
2014-Oct-24 09:40 027 3 gusting 8 16.1
2014-Oct-24 09:30 025 2 gusting 6 16.1
2014-Oct-24 09:10 028 2 gusting 6 16.1
2014-Oct-24 08:50 053 2 gusting 6 16.1
2014-Oct-24 08:40 047 1 gusting 5 15.6
2014-Oct-24 08:30 043 0 gusting 3 15.6
2014-Oct-24 08:20 033 0 gusting 2 15.0
2014-Oct-24 08:10 058 0 gusting 3 14.4
2014-Oct-24 08:00 032 13.3
2014-Oct-24 07:50 12.8
2014-Oct-24 07:40 12.2
2014-Oct-24 07:30 11.7
2014-Oct-24 07:20 275 11.7
2014-Oct-24 07:10 11.7
2014-Oct-24 07:00 11.1
2014-Oct-24 06:20 10.0
2014-Oct-24 06:10 10.0
2014-Oct-24 06:00 9.4
2014-Oct-24 05:50 9.4
2014-Oct-24 05:40 9.4
2014-Oct-24 05:30 259 0 gusting 1 9.4
2014-Oct-24 05:20 223 0 gusting 3 8.9
2014-Oct-24 05:10 252 1 gusting 4 8.9
2014-Oct-24 05:00 240 0 gusting 5 8.9
2014-Oct-24 04:50 270 1 gusting 2 8.9
2014-Oct-24 04:40 253 1 gusting 4 8.3
2014-Oct-24 04:20 253 0 gusting 2 8.3
2014-Oct-24 04:10 265 8.3
2014-Oct-24 03:50 8.3
2014-Oct-24 03:40 8.3
2014-Oct-24 03:30 256 8.3
2014-Oct-24 03:10 8.3
2014-Oct-24 03:00 251 8.3
2014-Oct-24 02:50 275 8.3
2014-Oct-24 02:40 274 8.3
2014-Oct-24 02:30 270 8.3
2014-Oct-24 02:20 7.8
2014-Oct-24 01:30 8.3
2014-Oct-24 01:10 261 0 gusting 2 8.3
2014-Oct-24 01:00 246 8.3
2014-Oct-24 00:50 237 1 gusting 2 8.3
2014-Oct-24 00:20 262 1 gusting 2 8.3
2014-Oct-24 00:10 265 1 gusting 3 7.8
2014-Oct-24 00:00 246 0 gusting 2 7.8
2014-Oct-23 23:50 300 7.8
2014-Oct-23 23:40 7.8
2014-Oct-23 23:20 305 8.3
2014-Oct-23 23:10 305 8.3
2014-Oct-23 23:00 8.3
2014-Oct-23 22:50 8.3
2014-Oct-23 22:40 244 0 gusting 2 8.3
2014-Oct-23 22:30 219 8.3
2014-Oct-23 22:20 8.3
2014-Oct-23 22:10 8.9
2014-Oct-23 22:00 253 8.9
2014-Oct-23 21:40 9.4
2014-Oct-23 21:30 256 9.4
2014-Oct-23 21:20 251 9.4
2014-Oct-23 21:10 247 9.4
2014-Oct-23 21:00 251 0 gusting 4 9.4
2014-Oct-23 20:40 270 0 gusting 2 9.4
2014-Oct-23 20:30 254 9.4
2014-Oct-23 20:10 253 9.4
2014-Oct-23 19:50 10.0
2014-Oct-23 19:30 10.6
2014-Oct-23 19:20 10.6
2014-Oct-23 19:00 182 11.1
2014-Oct-23 18:10 214 12.2
2014-Oct-23 18:00 12.2
2014-Oct-23 17:50 237 2 gusting 5 12.2
2014-Oct-23 17:40 227 1 gusting 5 12.2
2014-Oct-23 17:30 225 2 gusting 5 12.2
2014-Oct-23 17:00 225 3 gusting 6 12.8
2014-Oct-23 16:50 222 3 gusting 6 13.3
2014-Oct-23 16:40 200 1 gusting 3 13.3
2014-Oct-23 16:30 274 2 gusting 4 13.3
2014-Oct-23 16:20 270 3 gusting 7 13.3
2014-Oct-23 16:10 244 1 gusting 4 13.9
2014-Oct-23 16:00 262 0 gusting 5 13.9
2014-Oct-23 15:50 193 1 gusting 4 13.9
2014-Oct-23 15:40 206 2 gusting 4 13.9
2014-Oct-23 15:20 230 1 gusting 5 13.9
2014-Oct-23 15:00 253 2 gusting 5 13.9
2014-Oct-23 14:50 247 4 gusting 6 13.9
2014-Oct-23 14:40 224 4 gusting 7 13.9
2014-Oct-23 14:30 235 2 gusting 7 13.9
2014-Oct-23 14:00 236 3 gusting 9 15.0
2014-Oct-23 13:50 232 4 gusting 6 15.0
2014-Oct-23 13:40 216 4 gusting 9 15.0
2014-Oct-23 13:20 217 4 gusting 8 15.6
2014-Oct-23 13:10 212 4 gusting 6 15.6
2014-Oct-23 13:00 196 4 gusting 6 15.6
2014-Oct-23 12:50 191 4 gusting 8 15.0
2014-Oct-23 12:40 201 4 gusting 9 15.0
2014-Oct-23 12:30 218 3 gusting 4 14.4
2014-Oct-23 12:20 210 2 gusting 3 14.4
2014-Oct-23 12:10 200 3 gusting 6 14.4
2014-Oct-23 12:00 191 1 gusting 6 14.4
2014-Oct-23 11:50 194 14.4
2014-Oct-23 11:40 277 14.4
2014-Oct-23 11:30 171 0 gusting 1 14.4
2014-Oct-23 11:20 035 2 gusting 5 14.4
2014-Oct-23 11:10 022 2 gusting 4 14.4
2014-Oct-23 11:00 346 0 gusting 3 14.4
2014-Oct-23 10:50 198 0 gusting 0 14.4
2014-Oct-23 10:40 191 0 gusting 3 14.4
2014-Oct-23 10:30 209 0 gusting 1 14.4
2014-Oct-23 10:20 228 0 gusting 1 13.9
2014-Oct-23 10:10 256 0 gusting 4 13.9
2014-Oct-23 10:00 251 0 gusting 5 13.9
2014-Oct-23 09:50 102 3 gusting 6 13.9
2014-Oct-23 09:30 314 0 gusting 2 13.9
2014-Oct-23 09:20 198 2 gusting 7 13.9
2014-Oct-23 09:10 208 3 gusting 4 13.9
2014-Oct-23 09:00 205 6 gusting 8 14.4
2014-Oct-23 08:50 236 4 gusting 10 14.4
2014-Oct-23 08:40 195 5 gusting 8 13.9
2014-Oct-23 08:30 218 6 gusting 13 14.4
2014-Oct-23 08:20 191 5 gusting 18 16.1
2014-Oct-23 08:10 231 6 gusting 11 16.7
2014-Oct-23 08:00 239 4 gusting 17 17.2
2014-Oct-23 07:50 224 3 gusting 6 17.8
2014-Oct-23 07:40 210 2 gusting 7 18.9
2014-Oct-23 07:30 178 0 gusting 4 19.4
2014-Oct-23 07:20 204 1 gusting 3 19.4
2014-Oct-23 07:10 207 1 gusting 2 19.4
2014-Oct-23 06:50 310 19.4
2014-Oct-23 06:40 269 18.9
2014-Oct-23 06:30 266 0 gusting 0 18.9
2014-Oct-23 06:20 311 0 gusting 2 18.9
2014-Oct-23 06:10 294 0 gusting 1 18.9
2014-Oct-23 06:00 292 18.9
2014-Oct-23 05:50 297 0 gusting 1 18.3
2014-Oct-23 05:30 310 18.3
2014-Oct-23 05:20 18.3
2014-Oct-23 05:10 264 0 gusting 1 18.3
2014-Oct-23 04:40 286 18.3
2014-Oct-23 04:30 18.3
2014-Oct-23 04:20 335 0 gusting 4 18.3
2014-Oct-23 04:10 340 18.3
2014-Oct-23 04:00 18.3
2014-Oct-23 03:50 355 18.3
2014-Oct-23 03:40 355 18.3
2014-Oct-23 03:20 330 18.3
2014-Oct-23 03:10 18.3
2014-Oct-23 03:00 18.3
2014-Oct-23 02:50 18.3
2014-Oct-23 02:30 334 0 gusting 2 18.3
2014-Oct-23 02:20 342 0 gusting 2 18.3
2014-Oct-23 02:10 317 18.9
2014-Oct-23 02:00 323 0 gusting 1 18.9
2014-Oct-23 01:30 313 0 gusting 1 18.9
2014-Oct-23 01:20 326 0 gusting 1 18.9
2014-Oct-23 01:10 320 0 gusting 3 18.9
2014-Oct-23 01:00 314 0 gusting 2 18.9
2014-Oct-23 00:30 18.9
2014-Oct-23 00:20 329 0 gusting 2 18.9
2014-Oct-23 00:10 026 0 gusting 4 18.3
2014-Oct-23 00:00 062 1 gusting 1 18.3
2014-Oct-22 23:40 355 1 gusting 1 18.3
2014-Oct-22 23:10 031 0 gusting 2 18.3
2014-Oct-22 23:00 298 18.3
2014-Oct-22 22:30 326 17.8
2014-Oct-22 22:20 277 0 gusting 2 17.8
2014-Oct-22 22:10 301 0 gusting 2 17.2
2014-Oct-22 22:00 020 0 gusting 1 17.2
2014-Oct-22 21:50 168 1 gusting 1 17.2
2014-Oct-22 21:40 261 0 gusting 4 17.2
2014-Oct-22 21:30 286 17.2
2014-Oct-22 21:20 17.2
2014-Oct-22 21:10 17.8
2014-Oct-22 21:00 323 17.8
2014-Oct-22 20:50 323 0 gusting 0 17.8
2014-Oct-22 20:40 324 0 gusting 1 17.8
2014-Oct-22 20:10 309 17.8
2014-Oct-22 20:00 323 17.8
2014-Oct-22 19:50 319 0 gusting 0 17.8
2014-Oct-22 19:30 009 17.8
2014-Oct-22 19:20 009 17.8
2014-Oct-22 19:10 010 17.8
2014-Oct-22 19:00 17.8
2014-Oct-22 18:50 310 1 gusting 3 17.8
2014-Oct-22 18:40 331 17.8
2014-Oct-22 18:30 331 0 gusting 0 17.8
2014-Oct-22 18:20 324 0 gusting 1 17.8
2014-Oct-22 18:10 355 17.8
2014-Oct-22 18:00 355 18.3